Oakey, Queensland

2:34 AM AEST on February 07, 2016 (GMT +1000)
Oakey (Military)

Weather History for YBOK - December, 2013

Change the Weather History Date:

Saturday, December 7, 2013

  Actual Average Record
Temperature  
Mean Temperature 67 °F -  
Max Temperature 83 °F - - ()
Min Temperature 51 °F - - ()
Cooling Degree Days 2    
Growing Degree Days 17 (Base 50)    
Moisture  
Dew Point 48 °F    
Average Humidity 48    
Maximum Humidity 82    
Minimum Humidity 20    
Precipitation  
Precipitation 0.00 in - - ()
Sea Level Pressure  
Sea Level Pressure 30.08 in    
Wind  
Wind Speed 9 mph ()    
Max Wind Speed 16 mph    
Max Gust Speed -    
Visibility 6.2 miles    
Events      
T = Trace of Precipitation, MM = Missing Value Source: Averaged Metar Reports

Daily Weather History Graph

Daily Weather History Graph

Search for Another Location

Airport or City:

Trip Planner

Search our weather history database for the weather conditions in past years. The results will help you decide how hot, cold, wet, or windy it might be!

Date:

Astronomy

Dec. 07, 2013 Rise Set
Actual Time 4:50 AM AEST 6:38 PM AEST
Civil Twilight 4:24 AM AEST 7:05 PM AEST
Nautical Twilight 3:52 AM AEST 7:36 PM AEST
Astronomical Twilight 3:18 AM AEST 8:10 PM AEST
Moon 9:06 AM AEST (12/7) 10:24 PM AEST (12/7)
Length of Visible Light 14h 41m
Length of Day
13h 48m
Waxing Crescent, 22% of the Moon is Illuminated
Dec 7
Waxing Crescent
Dec 10
First Quarter
Dec 17
Full
Dec 25
Last Quarter
Jan 1
New

Hourly Weather History & Observations

Time (AEST) Temp. Dew Point Humidity Pressure Visibility Wind Dir Wind Speed Gust Speed Precip Events Conditions
12:00 AM 58 °F 45 °F 51% 30.05 in - East 10.4 mph - -  
12:00 AM 57.2 °F 44.6 °F 63% 30.09 in 6.2 mi East 10.4 mph - N/A   Unknown
1:00 AM 56 °F 45 °F 58% 30.04 in - ENE 9.2 mph - -  
1:00 AM 55.4 °F 44.6 °F 67% 30.09 in 6.2 mi ENE 9.2 mph - N/A   Unknown
2:00 AM 55.4 °F 44.6 °F 67% 30.09 in 6.2 mi NE 8.1 mph - N/A   Unknown
3:00 AM 53 °F 46 °F 70% 30.04 in - ENE 9.2 mph - -  
3:00 AM 53.6 °F 46.4 °F 77% 30.09 in 6.2 mi ENE 9.2 mph - N/A   Unknown
4:00 AM 54 °F 47 °F 68% 30.05 in - ENE 10.4 mph - -  
4:00 AM 53.6 °F 46.4 °F 77% 30.09 in 6.2 mi ENE 10.4 mph - N/A   Unknown
5:00 AM 51.8 °F 46.4 °F 82% 30.12 in 6.2 mi NE 6.9 mph - N/A   Unknown
6:00 AM 58 °F 48 °F 62% 30.09 in - East 10.4 mph - -  
6:00 AM 59.0 °F 48.2 °F 67% 30.12 in 6.2 mi East 10.4 mph - N/A   Unknown
7:00 AM 64 °F 49 °F 48% 30.11 in - ENE 12.7 mph - -  
7:00 AM 64.4 °F 48.2 °F 56% 30.15 in 6.2 mi ENE 12.7 mph - N/A   Unknown
8:00 AM 68.0 °F 50.0 °F 52% 30.15 in 6.2 mi NE 15.0 mph - N/A   Unknown
9:00 AM 71 °F 50 °F 36% 30.12 in - NE 10.4 mph - -  
9:00 AM 71.6 °F 50.0 °F 46% 30.15 in 6.2 mi NNE 10.4 mph - N/A   Scattered Clouds
10:00 AM 73 °F 49 °F 31% 30.11 in - ENE 9.2 mph - -  
10:00 AM 73.4 °F 48.2 °F 41% 30.15 in 6.2 mi ENE 9.2 mph - N/A   Unknown
11:00 AM 75.2 °F 48.2 °F 38% 30.15 in 6.2 mi South 4.6 mph - N/A   Unknown
12:00 PM 78 °F 49 °F 26% 30.06 in - ENE 6.9 mph - -  
12:00 PM 77.0 °F 50.0 °F 39% 30.12 in 6.2 mi ENE 6.9 mph - N/A   Unknown
1:00 PM 78 °F 47 °F 22% 30.04 in - East 6.9 mph - -  
1:00 PM 78.8 °F 46.4 °F 32% 30.09 in 6.2 mi East 6.9 mph - N/A   Unknown
2:00 PM 80.6 °F 48.2 °F 32% 30.06 in 6.2 mi NE 12.7 mph - N/A   Unknown
3:00 PM 81 °F 47 °F 20% 30.00 in - East 6.9 mph - -  
3:00 PM 80.6 °F 46.4 °F 30% 30.04 in 6.2 mi East 6.9 mph - N/A   Unknown
4:00 PM 83 °F 49 °F 20% 29.99 in - SSW 3.5 mph - -  
4:00 PM 82.4 °F 48.2 °F 30% 30.04 in 6.2 mi SSW 3.5 mph - N/A   Unknown
5:00 PM 80.6 °F 50.0 °F 34% 30.04 in 6.2 mi East 15.0 mph - N/A   Unknown
6:00 PM 78 °F 49 °F 25% 29.99 in - East 16.1 mph - -  
6:00 PM 78.8 °F 48.2 °F 34% 30.04 in 6.2 mi East 16.1 mph - N/A   Unknown
7:00 PM 74 °F 50 °F 32% 30.01 in - ENE 13.8 mph - -  
7:00 PM 73.4 °F 50.0 °F 44% 30.06 in 6.2 mi ENE 13.8 mph - N/A   Unknown
8:00 PM 69.8 °F 50.0 °F 49% 30.06 in 6.2 mi ENE 13.8 mph - N/A   Unknown
9:00 PM 66 °F 51 °F 48% 30.04 in - ENE 15.0 mph - -  
9:00 PM 66.2 °F 50.0 °F 56% 30.09 in 6.2 mi ENE 15.0 mph - N/A   Unknown
10:00 PM 64 °F 50 °F 49% 30.06 in - ENE 13.8 mph - -  
10:00 PM 64.4 °F 50.0 °F 59% 30.09 in 6.2 mi ENE 13.8 mph - N/A   Unknown
11:00 PM 62.6 °F 50.0 °F 63% 30.09 in 6.2 mi ENE 12.7 mph - N/A   Unknown